THA433 VTBS-WIII

Flight info

Callsign THA433
Flight time N/A
Altitude 39000
Route BUT1E BUT Y11 PASVA Y514 NUFFA DCT BIKTA B469 VMR B338 ANITO B470 BUNIK
Aircraft A346/H-SDE2E3FGHIJ3J4J5M1RWXY/LB1D1

Departure

Time 2026-05-07 04:58
Airport Suvarnabhumi Airport (VTBS)

Arrival

Time N/A
Airport Soekarno-Hatta International Airport (WIII)
Time Latitude Longitude Altitude Speed Heading
2026-05-07 04:12 13.68217 100.75284 21 ft 0 kts 194°
2026-05-07 04:43 13.68237 100.75289 27 ft 4 kts 189°
2026-05-07 04:43 13.68263 100.75292 27 ft 4 kts 179°
2026-05-07 04:43 13.68288 100.75288 27 ft 4 kts 160°
2026-05-07 04:43 13.68306 100.75277 27 ft 4 kts 129°
2026-05-07 04:44 13.68313 100.75264 27 ft 0 kts 104°
2026-05-07 04:44 13.68313 100.75265 27 ft 0 kts 104°
2026-05-07 04:47 13.68312 100.75267 27 ft 1 kts 104°
2026-05-07 04:47 13.68308 100.75284 27 ft 4 kts 104°
2026-05-07 04:48 13.68298 100.75324 25 ft 7 kts 104°
2026-05-07 04:48 13.68283 100.75385 22 ft 10 kts 104°
2026-05-07 04:48 13.68264 100.75464 21 ft 11 kts 104°
2026-05-07 04:48 13.68255 100.75513 21 ft 7 kts 86°
2026-05-07 04:49 13.68286 100.75566 21 ft 10 kts 45°
2026-05-07 04:49 13.68355 100.75597 21 ft 12 kts 17°
2026-05-07 04:49 13.68434 100.75608 23 ft 11 kts 339°
2026-05-07 04:49 13.68482 100.75543 21 ft 13 kts 290°
2026-05-07 04:50 13.68507 100.75449 21 ft 14 kts 285°
2026-05-07 04:50 13.68534 100.75344 22 ft 16 kts 284°
2026-05-07 04:50 13.68563 100.75227 21 ft 18 kts 284°
2026-05-07 04:50 13.68595 100.75096 21 ft 20 kts 284°
2026-05-07 04:51 13.68632 100.74949 22 ft 22 kts 284°
2026-05-07 04:51 13.68671 100.74793 21 ft 23 kts 284°
2026-05-07 04:51 13.68713 100.74627 21 ft 24 kts 284°
2026-05-07 04:51 13.68756 100.74456 22 ft 25 kts 284°
2026-05-07 04:52 13.68797 100.74294 22 ft 19 kts 284°
2026-05-07 04:52 13.68831 100.74163 22 ft 16 kts 292°
2026-05-07 04:52 13.68902 100.74128 23 ft 13 kts
2026-05-07 04:52 13.68998 100.74149 22 ft 15 kts 15°
2026-05-07 04:53 13.69102 100.74177 21 ft 17 kts 14°
2026-05-07 04:53 13.69222 100.74208 21 ft 19 kts 14°
2026-05-07 04:53 13.69357 100.74243 24 ft 21 kts 14°
2026-05-07 04:53 13.69504 100.74282 23 ft 23 kts 14°
2026-05-07 04:54 13.69661 100.74324 21 ft 24 kts 14°
2026-05-07 04:54 13.69817 100.74365 21 ft 15 kts 14°
2026-05-07 04:54 13.69873 100.74363 21 ft 8 kts 327°
2026-05-07 04:54 13.69909 100.74308 21 ft 11 kts 288°
2026-05-07 04:55 13.69932 100.74225 22 ft 13 kts 285°
2026-05-07 04:55 13.69957 100.74129 24 ft 15 kts 284°
2026-05-07 04:55 13.69983 100.74023 22 ft 16 kts 284°
2026-05-07 04:55 13.69993 100.73982 22 ft 0 kts 284°
2026-05-07 04:56 13.69996 100.73971 22 ft 3 kts 284°
2026-05-07 04:56 13.70002 100.73944 25 ft 5 kts 279°
2026-05-07 04:56 13.69998 100.73906 24 ft 6 kts 252°
2026-05-07 04:56 13.69971 100.73856 22 ft 10 kts 225°
2026-05-07 04:57 13.69903 100.73817 21 ft 13 kts 198°
2026-05-07 04:57 13.69748 100.73776 21 ft 53 kts 194°
2026-05-07 04:57 13.69126 100.73612 22 ft 130 kts 194°
2026-05-07 04:57 13.68031 100.73325 44 ft 189 kts 194°
2026-05-07 04:58 13.66722 100.72993 728 ft 192 kts 194°
2026-05-07 04:58 13.65414 100.72663 1596 ft 195 kts 193°
2026-05-07 04:58 13.64086 100.72351 2317 ft 199 kts 193°
2026-05-07 04:58 13.62675 100.72022 2720 ft 215 kts 192°
2026-05-07 04:59 13.61148 100.71659 3078 ft 235 kts 191°
2026-05-07 04:59 13.59522 100.71278 3525 ft 249 kts 191°
2026-05-07 04:59 13.57779 100.70871 4021 ft 265 kts 191°
2026-05-07 04:59 13.55953 100.70438 4669 ft 272 kts 191°
2026-05-07 05:00 13.54101 100.69995 5408 ft 275 kts 191°
2026-05-07 05:00 13.52208 100.69635 6128 ft 279 kts 186°
2026-05-07 05:00 13.50259 100.69440 6785 ft 283 kts 182°
2026-05-07 05:00 13.48285 100.69399 7444 ft 285 kts 170°
2026-05-07 05:01 13.46334 100.69767 8144 ft 286 kts 166°
2026-05-07 05:01 13.44379 100.70200 8860 ft 289 kts 166°
2026-05-07 05:01 13.42434 100.70634 9522 ft 292 kts 166°
2026-05-07 05:01 13.40435 100.71074 10136 ft 295 kts 166°
2026-05-07 05:02 13.38395 100.71518 10571 ft 307 kts 166°
2026-05-07 05:02 13.36251 100.71980 10850 ft 323 kts 166°
2026-05-07 05:02 13.33993 100.72465 11122 ft 339 kts 166°
2026-05-07 05:02 13.31630 100.72969 11397 ft 355 kts 166°
2026-05-07 05:03 13.29161 100.73494 11661 ft 370 kts 166°
2026-05-07 05:03 13.26589 100.74040 11968 ft 384 kts 167°
2026-05-07 05:03 13.23951 100.74599 12499 ft 389 kts 167°
2026-05-07 05:03 13.21326 100.75154 13147 ft 392 kts 166°
2026-05-07 05:04 13.18645 100.75720 13742 ft 395 kts 166°
2026-05-07 05:04 13.15935 100.76293 14287 ft 399 kts 166°
2026-05-07 05:04 13.13208 100.76870 14825 ft 402 kts 166°
2026-05-07 05:04 13.10457 100.77452 15387 ft 405 kts 167°
2026-05-07 05:05 13.07687 100.78038 15923 ft 408 kts 167°
2026-05-07 05:05 13.04898 100.78628 16458 ft 411 kts 167°
2026-05-07 05:05 13.02089 100.79221 16989 ft 414 kts 167°
2026-05-07 05:05 12.99306 100.79809 17492 ft 417 kts 167°
2026-05-07 05:06 12.96460 100.80411 18006 ft 419 kts 167°
2026-05-07 05:06 12.93587 100.81018 18454 ft 422 kts 167°
2026-05-07 05:06 12.90700 100.81627 18862 ft 425 kts 167°
2026-05-07 05:06 12.87792 100.82242 19307 ft 428 kts 167°
2026-05-07 05:07 12.84873 100.82857 19734 ft 430 kts 167°
2026-05-07 05:07 12.81931 100.83478 20146 ft 433 kts 167°
2026-05-07 05:07 12.78973 100.84101 20558 ft 436 kts 167°
2026-05-07 05:07 12.76000 100.84728 20943 ft 438 kts 167°
2026-05-07 05:08 12.73040 100.85351 21333 ft 441 kts 167°
2026-05-07 05:08 12.70027 100.85987 21709 ft 444 kts 167°
2026-05-07 05:08 12.66989 100.86626 22094 ft 446 kts 167°
2026-05-07 05:08 12.63940 100.87269 22467 ft 449 kts 167°
2026-05-07 05:09 12.60871 100.87915 22836 ft 452 kts 167°
2026-05-07 05:09 12.57783 100.88565 23199 ft 454 kts 167°
2026-05-07 05:09 12.54685 100.89218 23537 ft 457 kts 167°
2026-05-07 05:09 12.51556 100.89878 23801 ft 460 kts 167°
2026-05-07 05:10 12.48465 100.90529 24054 ft 462 kts 167°
2026-05-07 05:10 12.45301 100.91194 24325 ft 464 kts 167°
2026-05-07 05:10 12.42131 100.91861 24615 ft 466 kts 167°
2026-05-07 05:10 12.38946 100.92530 24905 ft 468 kts 167°
2026-05-07 05:11 12.35743 100.93203 25187 ft 471 kts 167°
2026-05-07 05:11 12.32528 100.93879 25467 ft 473 kts 167°
2026-05-07 05:11 12.29302 100.94556 25757 ft 475 kts 167°
2026-05-07 05:11 12.26052 100.95238 26035 ft 478 kts 167°
2026-05-07 05:12 12.22788 100.95924 26314 ft 480 kts 167°
2026-05-07 05:12 12.19551 100.96603 26594 ft 482 kts 167°
2026-05-07 05:12 12.16257 100.97294 26876 ft 484 kts 167°
2026-05-07 05:12 12.12931 100.97992 27162 ft 486 kts 168°
2026-05-07 05:13 12.09611 100.98683 27425 ft 489 kts 168°
2026-05-07 05:13 12.06275 100.99381 27677 ft 491 kts 168°
2026-05-07 05:13 12.02926 101.00085 27944 ft 493 kts 168°
2026-05-07 05:13 11.99559 101.00788 28207 ft 495 kts 168°
2026-05-07 05:14 11.96228 101.01485 28480 ft 497 kts 168°
2026-05-07 05:14 11.92838 101.02194 28864 ft 496 kts 168°
2026-05-07 05:14 11.89461 101.02900 29242 ft 495 kts 168°
2026-05-07 05:14 11.86091 101.03605 29568 ft 495 kts 168°
2026-05-07 05:15 11.82720 101.04311 29914 ft 494 kts 168°
2026-05-07 05:15 11.79360 101.05012 30250 ft 492 kts 168°
2026-05-07 05:15 11.76020 101.05708 30626 ft 488 kts 168°
2026-05-07 05:15 11.72700 101.06403 30935 ft 486 kts 168°
2026-05-07 05:16 11.69442 101.07084 31204 ft 485 kts 168°
2026-05-07 05:16 11.66139 101.07775 31469 ft 485 kts 168°
2026-05-07 05:16 11.62835 101.08455 31791 ft 484 kts 169°
2026-05-07 05:16 11.59531 101.09083 32153 ft 481 kts 169°
2026-05-07 05:17 11.56246 101.09688 32543 ft 479 kts 169°
2026-05-07 05:17 11.52974 101.10288 32918 ft 477 kts 169°
2026-05-07 05:17 11.49710 101.10888 33226 ft 476 kts 169°
2026-05-07 05:17 11.46451 101.11488 33571 ft 474 kts 169°
2026-05-07 05:18 11.43210 101.12088 33944 ft 472 kts 169°
2026-05-07 05:18 11.40030 101.12677 34230 ft 471 kts 169°
2026-05-07 05:18 11.36807 101.13275 34484 ft 470 kts 169°
2026-05-07 05:18 11.33593 101.13872 34729 ft 470 kts 169°
2026-05-07 05:19 11.30370 101.14470 34971 ft 470 kts 169°
2026-05-07 05:19 11.27162 101.15065 35263 ft 468 kts 169°
2026-05-07 05:19 11.23957 101.15659 35522 ft 468 kts 169°
2026-05-07 05:19 11.20752 101.16253 35770 ft 467 kts 169°
2026-05-07 05:20 11.17555 101.16845 36000 ft 467 kts 170°
2026-05-07 05:20 11.14358 101.17437 36232 ft 467 kts 170°
2026-05-07 05:20 11.11211 101.18021 36512 ft 465 kts 170°
2026-05-07 05:20 11.08032 101.18607 36820 ft 463 kts 169°
2026-05-07 05:21 11.04861 101.19194 37111 ft 463 kts 169°
2026-05-07 05:21 10.98547 101.20364 37657 ft 461 kts 169°
2026-05-07 05:21 10.95387 101.20950 37891 ft 461 kts 170°
2026-05-07 05:22 10.92231 101.21534 38106 ft 462 kts 170°
2026-05-07 05:22 10.89057 101.22121 38247 ft 464 kts 170°
2026-05-07 05:22 10.85879 101.22708 38382 ft 466 kts 170°
2026-05-07 05:22 10.82731 101.23291 38563 ft 466 kts 170°
2026-05-07 05:23 10.79547 101.23879 38752 ft 466 kts 170°
2026-05-07 05:23 10.76352 101.24469 38857 ft 467 kts 170°
2026-05-07 05:23 10.73153 101.25060 38887 ft 468 kts 169°
2026-05-07 05:24 10.66704 101.26247 38893 ft 473 kts 169°
2026-05-07 05:24 10.60216 101.27448 38897 ft 474 kts 169°
2026-05-07 05:25 10.53773 101.28637 38896 ft 475 kts 169°
2026-05-07 05:25 10.47222 101.29847 38993 ft 481 kts 169°
2026-05-07 05:26 10.40606 101.31070 39135 ft 485 kts 170°
2026-05-07 05:26 10.37287 101.31681 39253 ft 485 kts 170°
2026-05-07 05:26 10.33963 101.32291 39371 ft 486 kts 170°
2026-05-07 05:27 10.27334 101.33521 39562 ft 488 kts 170°
2026-05-07 05:27 10.23993 101.34142 39686 ft 488 kts 170°
2026-05-07 05:27 10.20656 101.34760 39827 ft 487 kts 170°
2026-05-07 05:27 10.17325 101.35379 39973 ft 486 kts 170°
2026-05-07 05:28 10.13992 101.35996 40114 ft 486 kts 170°
2026-05-07 05:28 10.10674 101.36611 40250 ft 485 kts 170°
2026-05-07 05:28 10.07352 101.37224 40385 ft 484 kts 170°
2026-05-07 05:28 10.04047 101.37836 40509 ft 483 kts 170°
2026-05-07 05:29 10.00787 101.38439 40629 ft 483 kts 170°
2026-05-07 05:29 9.97493 101.39045 40734 ft 482 kts 170°
2026-05-07 05:29 9.94189 101.39655 40789 ft 483 kts 170°
2026-05-07 05:30 9.87570 101.40881 40883 ft 484 kts 170°
2026-05-07 05:30 9.80933 101.42107 40890 ft 485 kts 170°
2026-05-07 05:31 9.74296 101.43333 40888 ft 485 kts 170°
2026-05-07 05:31 9.67706 101.44548 40886 ft 484 kts 170°
2026-05-07 05:32 9.61072 101.45771 40883 ft 485 kts 170°
2026-05-07 05:32 9.54431 101.46996 40883 ft 485 kts 170°
2026-05-07 05:33 9.47789 101.48222 40881 ft 485 kts 170°
2026-05-07 05:33 9.41149 101.49446 40882 ft 485 kts 170°
2026-05-07 05:34 9.34552 101.50661 40884 ft 485 kts 170°
2026-05-07 05:34 9.27913 101.51884 40882 ft 485 kts 170°
2026-05-07 05:35 9.21274 101.53103 40882 ft 484 kts 169°
2026-05-07 05:35 9.14651 101.54323 40883 ft 484 kts 169°
2026-05-07 05:36 9.08069 101.55534 40880 ft 484 kts 169°
2026-05-07 05:36 9.01447 101.56750 40880 ft 484 kts 169°
2026-05-07 05:37 8.94837 101.57966 40881 ft 484 kts 169°
2026-05-07 05:37 8.88224 101.59184 40881 ft 484 kts 169°
2026-05-07 05:38 8.81641 101.60396 40877 ft 485 kts 169°
2026-05-07 05:38 8.75001 101.61619 40877 ft 485 kts 169°
2026-05-07 05:39 8.68367 101.62839 40878 ft 485 kts 169°
2026-05-07 05:39 8.61731 101.64059 40877 ft 484 kts 169°
2026-05-07 05:40 8.55144 101.65269 40876 ft 484 kts 169°
2026-05-07 05:40 8.48500 101.66489 40879 ft 487 kts 169°
2026-05-07 05:41 8.41837 101.67712 40872 ft 487 kts 169°
2026-05-07 05:41 8.35161 101.68938 40872 ft 487 kts 169°
2026-05-07 05:42 8.28500 101.70160 40870 ft 487 kts 169°
2026-05-07 05:42 8.21892 101.71372 40870 ft 486 kts 169°
2026-05-07 05:43 8.15232 101.72593 40873 ft 487 kts 169°
2026-05-07 05:43 8.08537 101.73821 40872 ft 491 kts 170°
2026-05-07 05:44 8.01823 101.75051 40865 ft 490 kts 169°
2026-05-07 05:44 7.95162 101.76287 40866 ft 490 kts 169°
2026-05-07 05:45 7.88473 101.77529 40864 ft 489 kts 169°
2026-05-07 05:45 7.81773 101.78770 40864 ft 490 kts 169°
2026-05-07 05:46 7.75051 101.80015 40867 ft 491 kts 169°
2026-05-07 05:46 7.68387 101.81247 40863 ft 490 kts 169°
2026-05-07 05:47 7.61683 101.82487 40864 ft 489 kts 169°
2026-05-07 05:47 7.54981 101.83727 40864 ft 489 kts 169°
2026-05-07 05:48 7.48281 101.84965 40863 ft 491 kts 169°
2026-05-07 05:48 7.41564 101.86207 40861 ft 489 kts 170°
2026-05-07 05:49 7.34919 101.87435 40860 ft 488 kts 169°
2026-05-07 05:49 7.28239 101.88669 40862 ft 489 kts 170°
2026-05-07 05:50 7.21548 101.89904 40865 ft 489 kts 170°
2026-05-07 05:50 7.14844 101.91141 40864 ft 489 kts 170°
2026-05-07 05:51 7.08150 101.92376 40858 ft 489 kts 169°
2026-05-07 05:51 7.01520 101.93598 40857 ft 486 kts 169°
2026-05-07 05:52 6.94877 101.94823 40853 ft 486 kts 169°
2026-05-07 05:52 6.88211 101.96053 40854 ft 487 kts 169°
2026-05-07 05:53 6.81556 101.97279 40855 ft 486 kts 169°
2026-05-07 05:53 6.74956 101.98495 40857 ft 485 kts 169°
2026-05-07 05:54 6.68306 101.99719 40858 ft 486 kts 169°
2026-05-07 05:54 6.61666 102.00937 40862 ft 485 kts 169°
2026-05-07 05:55 6.55033 102.02162 40863 ft 484 kts 169°
2026-05-07 05:55 6.48458 102.03374 40858 ft 483 kts 169°
2026-05-07 05:56 6.41839 102.04590 40859 ft 484 kts 169°
2026-05-07 05:56 6.35198 102.05810 40847 ft 485 kts 169°
2026-05-07 05:57 6.28569 102.07044 40845 ft 483 kts 167°
2026-05-07 05:57 6.22124 102.08745 40847 ft 481 kts 161°
2026-05-07 05:58 6.15758 102.10830 40848 ft 481 kts 161°
2026-05-07 05:58 6.09396 102.12933 40846 ft 481 kts 161°
2026-05-07 05:59 6.03031 102.15025 40847 ft 481 kts 161°
2026-05-07 05:59 5.96710 102.17106 40847 ft 481 kts 161°
2026-05-07 06:00 5.90345 102.19201 40849 ft 481 kts 161°
2026-05-07 06:00 5.83980 102.21293 40850 ft 481 kts 161°
2026-05-07 06:01 5.77608 102.23386 40852 ft 481 kts 161°
2026-05-07 06:01 5.71319 102.25680 40850 ft 481 kts 157°
2026-05-07 06:02 5.65144 102.28152 40851 ft 481 kts 157°
2026-05-07 06:02 5.58930 102.30642 40850 ft 481 kts 157°
2026-05-07 06:03 5.52710 102.33125 40853 ft 481 kts 157°
2026-05-07 06:03 5.46495 102.35611 40855 ft 481 kts 157°
2026-05-07 06:04 5.40280 102.38097 40852 ft 481 kts 157°
2026-05-07 06:04 5.34105 102.40562 40854 ft 481 kts 157°
2026-05-07 06:05 5.27889 102.43043 40858 ft 481 kts 157°
2026-05-07 06:05 5.21661 102.45530 40852 ft 481 kts 157°
2026-05-07 06:06 5.15436 102.48014 40853 ft 481 kts 157°
2026-05-07 06:06 5.09254 102.50482 40857 ft 481 kts 157°
2026-05-07 06:07 5.03031 102.52965 40856 ft 481 kts 157°
2026-05-07 06:07 4.96825 102.55440 40855 ft 481 kts 157°
2026-05-07 06:08 4.95806 102.55846 40855 ft 481 kts 157°
2026-05-07 06:08 4.84797 102.60239 40855 ft 481 kts 157°
2026-05-07 06:09 4.78579 102.62719 40856 ft 480 kts 157°
2026-05-07 06:09 4.72381 102.65188 40862 ft 479 kts 157°
2026-05-07 06:10 4.66177 102.67659 40861 ft 479 kts 157°
2026-05-07 06:10 4.60017 102.70113 40861 ft 479 kts 157°
2026-05-07 06:11 4.53821 102.72583 40866 ft 479 kts 157°
2026-05-07 06:11 4.47621 102.75054 40865 ft 479 kts 157°
2026-05-07 06:12 4.41431 102.77520 40860 ft 478 kts 157°
2026-05-07 06:12 4.35294 102.79962 40861 ft 478 kts 157°
2026-05-07 06:13 4.29109 102.82425 40855 ft 478 kts 157°
2026-05-07 06:13 4.22926 102.84887 40855 ft 478 kts 157°
2026-05-07 06:14 4.16746 102.87345 40857 ft 478 kts 157°
2026-05-07 06:14 4.10603 102.89790 40853 ft 478 kts 157°
2026-05-07 06:15 4.04426 102.92247 40847 ft 478 kts 157°
2026-05-07 06:15 3.98251 102.94702 40846 ft 478 kts 157°
2026-05-07 06:16 3.92064 102.97162 40842 ft 478 kts 157°
2026-05-07 06:16 3.85924 102.99603 40843 ft 478 kts 157°
2026-05-07 06:17 3.79746 103.02058 40844 ft 477 kts 157°
2026-05-07 06:17 3.73573 103.04513 40845 ft 477 kts 157°
2026-05-07 06:18 3.67397 103.06969 40840 ft 478 kts 157°
2026-05-07 06:18 3.61217 103.09425 40843 ft 478 kts 157°
2026-05-07 06:19 3.55074 103.11865 40840 ft 478 kts 157°
2026-05-07 06:19 3.48897 103.14317 40840 ft 477 kts 157°
2026-05-07 06:20 3.42726 103.16768 40840 ft 477 kts 157°
2026-05-07 06:20 3.36595 103.19304 40835 ft 476 kts 153°
2026-05-07 06:21 3.30844 103.22480 40834 ft 475 kts 146°
2026-05-07 06:21 3.25539 103.26405 40833 ft 474 kts 138°
2026-05-07 06:22 3.20798 103.30969 40837 ft 472 kts 132°
2026-05-07 06:22 3.14034 103.38157 40836 ft 472 kts 132°
2026-05-07 06:23 3.09551 103.42916 40833 ft 472 kts 132°
2026-05-07 06:23 3.05036 103.47700 40833 ft 472 kts 132°
2026-05-07 06:24 3.00527 103.52481 40839 ft 471 kts 133°
2026-05-07 06:24 2.96043 103.57198 40834 ft 470 kts 134°
2026-05-07 06:25 2.91158 103.61562 40834 ft 471 kts 141°
2026-05-07 06:25 2.85794 103.65317 40837 ft 471 kts 148°
2026-05-07 06:26 2.80008 103.68421 40832 ft 472 kts 154°
2026-05-07 06:26 2.74012 103.71107 40834 ft 472 kts 155°
2026-05-07 06:27 2.68063 103.73795 40836 ft 472 kts 154°
2026-05-07 06:27 2.62090 103.76534 40839 ft 472 kts 154°
2026-05-07 06:28 2.56120 103.79267 40841 ft 472 kts 154°
2026-05-07 06:28 2.50154 103.81997 40847 ft 472 kts 154°
2026-05-07 06:29 2.44196 103.84656 40849 ft 472 kts 157°
2026-05-07 06:29 2.37988 103.86814 40854 ft 473 kts 163°
2026-05-07 06:30 2.31580 103.88304 40849 ft 473 kts 169°
2026-05-07 06:30 2.25076 103.89334 40849 ft 473 kts 170°
2026-05-07 06:31 2.18614 103.90332 40845 ft 473 kts 170°
2026-05-07 06:31 2.12115 103.91343 40839 ft 472 kts 170°
2026-05-07 06:32 2.05626 103.92355 40831 ft 472 kts 170°
2026-05-07 06:32 1.99138 103.93368 40831 ft 472 kts 170°
2026-05-07 06:33 1.92644 103.94381 40835 ft 472 kts 170°
2026-05-07 06:33 1.86199 103.95386 40834 ft 472 kts 170°
2026-05-07 06:34 1.79700 103.96400 40829 ft 473 kts 170°
2026-05-07 06:34 1.73193 103.97410 40830 ft 473 kts 170°
2026-05-07 06:35 1.66684 103.98401 40834 ft 473 kts 170°
2026-05-07 06:35 1.60213 103.99384 40841 ft 473 kts 170°
2026-05-07 06:36 1.53704 104.00375 40843 ft 473 kts 170°
2026-05-07 06:36 1.47216 104.01475 40842 ft 473 kts 167°
2026-05-07 06:37 1.40868 104.03183 40842 ft 472 kts 161°
2026-05-07 06:37 1.34747 104.05549 40849 ft 471 kts 155°
2026-05-07 06:38 1.28871 104.08366 40845 ft 471 kts 153°
2026-05-07 06:38 1.22980 104.11236 40851 ft 471 kts 153°
2026-05-07 06:39 1.17085 104.14111 40849 ft 471 kts 153°
2026-05-07 06:39 1.11186 104.16984 40850 ft 471 kts 153°
2026-05-07 06:40 1.05340 104.19831 40848 ft 471 kts 153°
2026-05-07 06:40 0.99448 104.22694 40849 ft 471 kts 153°
2026-05-07 06:41 0.93543 104.25562 40849 ft 472 kts 153°
2026-05-07 06:41 0.87633 104.28436 40856 ft 472 kts 153°
2026-05-07 06:42 0.81768 104.31288 40857 ft 472 kts 153°
2026-05-07 06:42 0.75888 104.34227 40857 ft 472 kts 152°
2026-05-07 06:43 0.70027 104.37188 40839 ft 472 kts 152°
2026-05-07 06:43 0.64169 104.40141 40838 ft 472 kts 153°
2026-05-07 06:44 0.58303 104.43094 40838 ft 472 kts 153°
2026-05-07 06:44 0.52480 104.46024 40839 ft 472 kts 153°
2026-05-07 06:45 0.46619 104.48972 40837 ft 472 kts 153°
2026-05-07 06:45 0.40759 104.51920 40828 ft 472 kts 153°
2026-05-07 06:46 0.34896 104.54869 40825 ft 471 kts 153°
2026-05-07 06:46 0.29074 104.57798 40825 ft 471 kts 153°
2026-05-07 06:47 0.23204 104.60736 40823 ft 471 kts 154°
2026-05-07 06:47 0.17252 104.63498 40825 ft 472 kts 155°
2026-05-07 06:48 0.11285 104.66229 40824 ft 472 kts 154°
2026-05-07 06:48 0.05369 104.68951 40826 ft 471 kts 154°
2026-05-07 06:49 -0.00586 104.71698 40824 ft 471 kts 154°
2026-05-07 06:49 -0.06527 104.74442 40823 ft 470 kts 154°
2026-05-07 06:50 -0.12466 104.77186 40825 ft 470 kts 154°
2026-05-07 06:50 -0.18404 104.79929 40827 ft 470 kts 154°